• In Russia
  • List of Countries
  • For 7 days
  • Water Temperature
  • Weather Map
  • Weather Widgets
  • user-avatar
    Login

    Hourly Weather Hrazdan

    Today, 28 March, Saturday

    Time Temperature Precipitation Wind Pressure Humidity
    00:00 +3°C° 0 mm 1 mps 611 mmHg 87%
    01:00 +3°C° 0 mm 1 mps 610 mmHg 88%
    02:00 +3°C° 0 mm 1 mps 610 mmHg 88%
    03:00 +3°C° 0 mm 1 mps 610 mmHg 87%
    04:00 +3°C° 0 mm 1 mps 610 mmHg 87%
    05:00 +3°C° 0 mm 1 mps 610 mmHg 87%
    06:00 +3°C° 0 mm 1 mps 610 mmHg 87%
    07:00 +4°C° 0 mm 1 mps 610 mmHg 82%
    08:00 +5°C° 0 mm 2 mps 610 mmHg 76%
    09:00 +6°C° 0 mm 2 mps 610 mmHg 70%
    10:00 +7°C° 0 mm 2 mps 610 mmHg 69%
    11:00 +7°C° 0 mm 2 mps 610 mmHg 68%
    12:00 +8°C° 0 mm 2 mps 610 mmHg 68%
    13:00 +7°C° 0.2 mm 2 mps 609 mmHg 72%
    14:00 +8°C° 0.2 mm 1 mps 609 mmHg 76%
    15:00 +8°C° 0.2 mm 1 mps 608 mmHg 80%
    16:00 +7°C° 0.2 mm 1 mps 608 mmHg 83%
    17:00 +7°C° 0.2 mm 1 mps 608 mmHg 87%
    18:00 +6°C° 0.2 mm 1 mps 608 mmHg 91%
    19:00 +6°C° 0.6 mm 1 mps 608 mmHg 92%
    20:00 +5°C° 0.6 mm 1 mps 607 mmHg 94%
    21:00 +5°C° 0.6 mm 1 mps 607 mmHg 95%
    22:00 +5°C° 0.4 mm 1 mps 607 mmHg 95%
    23:00 +5°C° 0.4 mm 1 mps 607 mmHg 95%

    Tomorrow, 29 March, Sunday

    Time Temperature Precipitation Wind Pressure Humidity
    00:00 +5°C° 0.4 mm 1 mps 607 mmHg 95%
    01:00 +5°C° 0.1 mm 1 mps 607 mmHg 94%
    02:00 +4°C° 0.1 mm 1 mps 606 mmHg 94%
    03:00 +4°C° 0.1 mm 1 mps 606 mmHg 94%
    04:00 +4°C° 0.1 mm 1 mps 605 mmHg 94%
    05:00 +3°C° 0.1 mm 2 mps 605 mmHg 94%
    06:00 +3°C° 0.1 mm 2 mps 605 mmHg 94%
    07:00 +3°C° 0 mm 2 mps 605 mmHg 91%
    08:00 +4°C° 0 mm 2 mps 604 mmHg 89%
    09:00 +5°C° 0 mm 2 mps 604 mmHg 87%
    10:00 +4°C° 0.5 mm 2 mps 604 mmHg 89%
    11:00 +4°C° 0.5 mm 2 mps 603 mmHg 91%
    12:00 +4°C° 0.5 mm 2 mps 603 mmHg 94%
    13:00 +3°C° 1.8 mm 2 mps 602 mmHg 95%
    14:00 +3°C° 1.8 mm 2 mps 602 mmHg 96%
    15:00 +3°C° 1.8 mm 1 mps 601 mmHg 97%
    16:00 +4°C° 0.7 mm 1 mps 602 mmHg 95%
    17:00 +4°C° 0.7 mm 1 mps 602 mmHg 94%
    18:00 +4°C° 0.7 mm 1 mps 602 mmHg 92%
    19:00 +3°C° 0 mm 1 mps 602 mmHg 91%
    20:00 +3°C° 0 mm 1 mps 602 mmHg 89%
    21:00 +2°C° 0 mm 1 mps 602 mmHg 88%
    22:00 +2°C° 0 mm 1 mps 602 mmHg 87%
    23:00 +2°C° 0 mm 1 mps 602 mmHg 87%

    Day after tomorrow, 30 March, Monday

    Time Temperature Precipitation Wind Pressure Humidity
    00:00 +2°C° 0 mm 1 mps 601 mmHg 86%
    01:00 +1°C° 0 mm 1 mps 601 mmHg 86%
    02:00 +1°C° 0 mm 1 mps 601 mmHg 85%
    03:00 +1°C° 0 mm 1 mps 600 mmHg 84%
    04:00 -1°C° 0.2 mm 2 mps 600 mmHg 86%
    05:00 -1°C° 0.2 mm 2 mps 600 mmHg 88%
    06:00 -1°C° 0.2 mm 2 mps 601 mmHg 90%
    07:00 +1°C° 0.2 mm 2 mps 601 mmHg 89%
    08:00 +2°C° 0.2 mm 2 mps 601 mmHg 87%
    09:00 +3°C° 0.2 mm 2 mps 602 mmHg 86%
    10:00 +3°C° 0.2 mm 2 mps 602 mmHg 84%
    11:00 +3°C° 0.2 mm 3 mps 602 mmHg 82%
    12:00 +3°C° 0.2 mm 3 mps 602 mmHg 81%
    13:00 +4°C° 0.3 mm 3 mps 602 mmHg 80%
    14:00 +4°C° 0.3 mm 3 mps 602 mmHg 79%
    15:00 +5°C° 0.3 mm 2 mps 602 mmHg 78%
    16:00 +4°C° 0.2 mm 2 mps 602 mmHg 78%
    17:00 +4°C° 0.2 mm 2 mps 603 mmHg 79%
    18:00 +3°C° 0.2 mm 2 mps 603 mmHg 80%
    19:00 +3°C° 0 mm 2 mps 603 mmHg 80%
    20:00 +3°C° 0 mm 2 mps 604 mmHg 80%
    21:00 +2°C° 0 mm 2 mps 604 mmHg 80%
    22:00 +2°C° 0 mm 2 mps 604 mmHg 79%
    23:00 +2°C° 0 mm 2 mps 605 mmHg 79%

    31 March, Tuesday

    Time Temperature Precipitation Wind Pressure Humidity
    00:00 +1°C° 0 mm 2 mps 605 mmHg 78%
    01:00 +1°C° 0 mm 2 mps 605 mmHg 77%
    02:00 +1°C° 0 mm 2 mps 605 mmHg 75%
    03:00 +1°C° 0 mm 2 mps 605 mmHg 74%
    04:00 -1°C° 0 mm 2 mps 606 mmHg 74%
    05:00 -1°C° 0 mm 2 mps 606 mmHg 74%
    06:00 -1°C° 0 mm 2 mps 606 mmHg 74%
    07:00 +1°C° 0 mm 3 mps 606 mmHg 71%
    08:00 +2°C° 0 mm 3 mps 607 mmHg 67%
    09:00 +3°C° 0 mm 3 mps 607 mmHg 64%
    10:00 +4°C° 0 mm 4 mps 607 mmHg 63%
    11:00 +5°C° 0 mm 4 mps 607 mmHg 62%
    12:00 +6°C° 0 mm 4 mps 608 mmHg 60%
    13:00 +6°C° 0 mm 4 mps 607 mmHg 60%
    14:00 +6°C° 0 mm 4 mps 607 mmHg 59%
    15:00 +6°C° 0 mm 4 mps 607 mmHg 58%
    16:00 +6°C° 0 mm 4 mps 607 mmHg 61%
    17:00 +5°C° 0 mm 3 mps 607 mmHg 65%
    18:00 +5°C° 0 mm 2 mps 606 mmHg 68%
    19:00 +4°C° 0 mm 2 mps 606 mmHg 71%
    20:00 +4°C° 0 mm 2 mps 606 mmHg 74%
    21:00 +3°C° 0 mm 2 mps 607 mmHg 77%
    22:00 +3°C° 0.2 mm 2 mps 607 mmHg 82%
    23:00 +3°C° 0.2 mm 2 mps 607 mmHg 86%

    1 April, Wednesday

    Time Temperature Precipitation Wind Pressure Humidity
    00:00 +3°C° 0.2 mm 2 mps 607 mmHg 90%
    01:00 +2°C° 0 mm 2 mps 606 mmHg 89%
    02:00 +2°C° 0 mm 2 mps 606 mmHg 87%
    03:00 +2°C° 0 mm 2 mps 606 mmHg 85%
    04:00 +2°C° 0 mm 2 mps 606 mmHg 85%
    05:00 +3°C° 0 mm 1 mps 606 mmHg 85%
    06:00 +3°C° 0 mm 1 mps 606 mmHg 85%
    07:00 +3°C° 0 mm 2 mps 606 mmHg 81%
    08:00 +4°C° 0 mm 2 mps 607 mmHg 76%
    09:00 +5°C° 0 mm 3 mps 607 mmHg 72%
    10:00 +5°C° 0.1 mm 3 mps 607 mmHg 73%
    11:00 +5°C° 0.1 mm 3 mps 607 mmHg 75%
    12:00 +5°C° 0.1 mm 4 mps 607 mmHg 76%
    13:00 +5°C° 0.4 mm 3 mps 606 mmHg 76%
    14:00 +6°C° 0.4 mm 2 mps 606 mmHg 77%
    15:00 +6°C° 0.4 mm 2 mps 605 mmHg 77%
    16:00 +7°C° 0.5 mm 1 mps 605 mmHg 79%
    17:00 +7°C° 0.5 mm 1 mps 605 mmHg 81%
    18:00 +6°C° 0.5 mm 1 mps 604 mmHg 83%
    19:00 +6°C° 0.2 mm 1 mps 604 mmHg 82%
    20:00 +5°C° 0.2 mm 1 mps 605 mmHg 81%
    21:00 +5°C° 0.2 mm 1 mps 605 mmHg 81%
    22:00 +5°C° 0 mm 1 mps 605 mmHg 80%
    23:00 +4°C° 0 mm 1 mps 604 mmHg 80%

    2 April, Thursday

    Time Temperature Precipitation Wind Pressure Humidity
    00:00 +4°C° 0 mm 1 mps 604 mmHg 80%
    01:00 +4°C° 0 mm 1 mps 604 mmHg 81%
    02:00 +3°C° 0 mm 1 mps 604 mmHg 83%
    03:00 +3°C° 0 mm 1 mps 604 mmHg 84%
    04:00 +2°C° 0 mm 2 mps 604 mmHg 85%
    05:00 +2°C° 0 mm 2 mps 604 mmHg 86%
    06:00 +2°C° 0 mm 2 mps 604 mmHg 87%
    07:00 +3°C° 0 mm 2 mps 605 mmHg 81%
    08:00 +3°C° 0 mm 3 mps 605 mmHg 76%
    09:00 +4°C° 0 mm 4 mps 606 mmHg 71%
    10:00 +5°C° 0.1 mm 4 mps 606 mmHg 69%
    11:00 +6°C° 0.1 mm 5 mps 606 mmHg 67%
    12:00 +6°C° 0.1 mm 5 mps 606 mmHg 66%
    13:00 +7°C° 0.1 mm 5 mps 606 mmHg 64%
    14:00 +7°C° 0.1 mm 5 mps 606 mmHg 62%
    15:00 +7°C° 0.1 mm 6 mps 606 mmHg 60%
    16:00 +7°C° 0 mm 5 mps 606 mmHg 62%
    17:00 +6°C° 0 mm 4 mps 606 mmHg 64%
    18:00 +5°C° 0 mm 3 mps 605 mmHg 66%
    19:00 +5°C° 0 mm 2 mps 605 mmHg 68%
    20:00 +4°C° 0 mm 2 mps 605 mmHg 70%
    21:00 +3°C° 0 mm 2 mps 605 mmHg 72%
    22:00 +3°C° 0 mm 2 mps 605 mmHg 75%
    23:00 +4°C° 0 mm 1 mps 605 mmHg 78%
    Show more